Weather in Mbabane

Swaziland     26°19′35″S   31°08′38″E
temp.,
°C
wind,
m/s
gust,
m/s
humid.,
%
clouds,
%
prec.,
mm/h
press.,
hPa
HPBL,
m
17 april, sat
sat1723:00+10s388497 0.1 1030992
02:00+10ssw2677100 0.2 1029594
05:00+8wsw22820 0.0 102920
08:00+12sw13620 0.0 1029723
11:00+17e21480 0.0 10281257
14:00+19ene33430 0.0 10241442
17:00+15ene35631 0.0 1024219
20:00+10nnw11883 0.0 102715
18 april, sun
sun1823:00+9nw21939 0.0 102713
02:00+9wnw229313 0.0 102623
05:00+9wnw22911 0.0 102521
08:00+15nw11680 0.0 1025194
11:00+21ene22490 0.0 1023915
14:00+22ene33480 0.0 10211047
17:00+18ne35660 0.0 1022149
20:00+13nnw22830 0.0 102417
19 april, mon
mon1923:00+12nw22870 0.0 102419
02:00+11w22860 0.0 102321
05:00+11wnw22820 0.0 102222
08:00+17wnw12570 0.0 1022145
11:00+25ese22360 0.0 1020822
14:00+26ese33340 0.0 1017987
17:00+20ene11600 0.0 101911
20:00+15wsw21690 0.0 102311
20 april, tue
tue2023:00+14sw22740 0.0 102411
02:00+12sw228683 0.0 102518
05:00+15s2680100 0.0 1024460
08:00+17sse147394 0.1 1026349
11:00+20se44570 0.1 10241321
14:00+22se435112 0.1 10211794
17:00+19ese22632 0.0 102246
20:00+14n11810 0.0 102411
21 april, wed
wed2123:00+12wsw119447 0.0 102411
02:00+13wnw119037 0.0 102235
05:00+11w22910 0.0 102221
08:00+17wnw12640 0.0 1022147
11:00+24ene22400 0.0 10191003
14:00+26e32370 0.0 10171197
17:00+20ne22572 0.0 101729
20:00+16nw22615 0.0 102018